Home   Weather   Gdańsk   Past weeks

Flag for Poland Past Weather in Gdańsk, Poland — Yesterday and Last 2 Weeks

Now
45 °F

Passing clouds.


Feels Like: 43 °F
Forecast: 56 / 63 °F
Wind: 3 mph from Northwest

Location: Gdansk-Rebiechowo

Current Time: Oct 1, 2016 at 7:06:01 AM

Latest Report: Oct 1, 2016 at 6:30 AM


Visibility: N/A

Pressure: 29.92 "Hg

Humidity: 100%

Dew Point: 45 °F

Location of GdańskLocation

Past Weather in Gdańsk — Graph

°F

Gdańsk Temperature Yesterday

Maximum temperature yesterday: 64 °F (at 12:00 AM)
Minimum temperature yesterday: 50 °F (at 11:30 PM)
Average temperature yesterday: 58 °F

High & Low Weather Summary for the Past Weeks

 TemperatureHumidityPressure
High68 °F (Sep 29, 3:00 PM)100% (Sep 16, 6:30 AM)30.36 "Hg (Sep 16, 6:30 AM)
Low37 °F (Sep 27, 5:30 AM)42% (Sep 19, 12:00 PM)29.68 "Hg (Sep 30, 12:30 AM)
Average55 °F79%30.09 "Hg
* Reported Sep 16 6:00 AM — Oct 1 6:00 AM, Gdańsk, Weather by CustomWeather, © 2016

Note: Actual official high and low records may vary slightly from our data, if they occured in-between our weather recording intervals... More about our weather records

Advertising

Gdańsk Weather History for the Previous 24 Hours

Scroll right to see more
 ConditionsComfort  
Time TempWeatherWind HumidityBarometerVisibility
6:00 AM
Sat, Oct 1
45 °FClear.5 mph93%29.92 "Hg10 mi
5:30 AM46 °FClear.6 mph93%29.92 "Hg10 mi
5:00 AM48 °FClear.8 mph94%29.92 "Hg10 mi
4:30 AM48 °FClear.7 mph94%29.92 "Hg10 mi
4:00 AM48 °FPassing clouds.7 mph94%29.92 "HgN/A
3:30 AM48 °FClear.6 mph94%29.92 "Hg10 mi
3:00 AM50 °FClear.6 mph88%29.92 "Hg10 mi
2:30 AM50 °FClear.6 mph94%29.92 "Hg10 mi
2:00 AM48 °FClear.5 mph94%29.92 "Hg10 mi
1:30 AM48 °FClear.5 mph100%29.92 "Hg10 mi
1:00 AM48 °FClear.2 mph100%29.92 "Hg10 mi
12:30 AM50 °FClear.3 mph94%29.89 "Hg10 mi
12:00 AM50 °FPassing clouds.5 mph94%29.89 "HgN/A
11:30 PM
Fri, Sep 30
50 °FClear.2 mph94%29.89 "Hg10 mi
11:00 PM52 °FClear.5 mph88%29.89 "Hg10 mi
10:30 PM52 °FPassing clouds.5 mph94%29.89 "HgN/A
10:00 PM52 °FPassing clouds.5 mph94%29.89 "HgN/A
9:30 PM54 °FSprinkles. Passing clouds.6 mph88%29.89 "HgN/A
9:00 PM54 °FSprinkles. Passing clouds.13 mph88%29.89 "Hg4 mi
8:30 PM55 °FClear.6 mph77%29.89 "Hg10 mi
8:00 PM55 °FClear.3 mph77%29.89 "Hg10 mi
7:30 PM55 °FClear.3 mph72%29.86 "Hg10 mi
7:00 PM57 °FPassing clouds.3 mph67%29.86 "HgN/A
6:30 PM57 °FPassing clouds.3 mph67%29.86 "HgN/A
6:00 PM59 °FPassing clouds.7 mph59%29.86 "HgN/A
5:30 PM61 °FPassing clouds.7 mph55%29.86 "HgN/A
5:00 PM63 °FPassing clouds.10 mph49%29.86 "HgN/A
4:30 PM63 °FSunny.8 mph52%29.86 "Hg10 mi
4:00 PM63 °FPassing clouds.12 mph49%29.86 "HgN/A
3:30 PM63 °FPassing clouds.15 mph49%29.86 "HgN/A
3:00 PM63 °FScattered clouds.13 mph52%29.86 "HgN/A
2:30 PM61 °FPassing clouds.12 mph59%29.86 "HgN/A
2:00 PM63 °FPassing clouds.13 mph56%29.86 "HgN/A
1:30 PM61 °FScattered clouds.12 mph59%29.86 "HgN/A
1:00 PM63 °FScattered clouds.12 mph59%29.86 "HgN/A
12:30 PM61 °FPassing clouds.13 mph59%29.86 "HgN/A
12:00 PM63 °FScattered clouds.12 mph59%29.86 "HgN/A
11:30 AM61 °FScattered clouds.15 mph63%29.83 "HgN/A
11:00 AM61 °FScattered clouds.14 mph68%29.83 "HgN/A
10:30 AM59 °FScattered clouds.14 mph72%29.83 "HgN/A
10:00 AM57 °FPassing clouds.14 mph77%29.80 "HgN/A
9:30 AM57 °FPassing clouds.15 mph77%29.80 "HgN/A
9:00 AM57 °FSunny.13 mph77%29.80 "Hg10 mi
8:30 AM55 °FPassing clouds.12 mph82%29.80 "HgN/A
8:00 AM55 °FSunny.13 mph82%29.77 "Hg10 mi
7:30 AM55 °FPassing clouds.13 mph82%29.77 "HgN/A
7:00 AM55 °FPassing clouds.12 mph82%29.77 "HgN/A
Weather by CustomWeather, © 2016

See weather overviewHow to use our weather pages